ATLAS CENTAUR 2 DEB, 739

Orbit data source: Space-Track

ATLAS CENTAUR 2 DEB, 739 is space debris in LEO originally from a launch on Wed, 27 Nov 1963 UTC launched from the Air Force Eastern Test Range (AFETR). Debris objects in space refer to the collection of defunct objects orbiting the Earth. Examples of debris include non-operational satellites, rocket bodies, and fragments generated from explosions, collisions, or faulty payload assembly.

Loading next visibility...
Identifier
739, 1963-047H
Orbit
LEO
Country
Flag of USUS
Related business
Manufacturer
GD/Convair
Mission
Spacecraft
Bus & Motor
CENTAUR PART, Unknown motor
Mass
Unknown
Launch date (UTC)
1963-11-27 (63 years ago)
Launch vehicle
Unknown
Launch site
Air Force Eastern Test Range (AFETR)
Object type
Payload
Rocket body
Debris
Shape & HBR
Unknown shape, 0.3 m
Radar Cross Section
Medium (>0.1 m² and <1 m²)

Expand to show TLE details & history
Last TLE update: 18 hours ago

TLE from 18 hours ago
0 ATLAS CENTAUR 2 DEB
1 00739U 63047H   26237.29347169  .00000280  00000-0  28047-4 0  9995
2 00739  30.4268  84.8679 0635266 261.4436  91.3716 13.85335844150973
Epoch: 2026-08-25T07:02Z
TLE epoch observation values (Epoch: 2026-08-25T07:02:35.954Z)
Latitude
-0.00002°
Longitude
5.65517°
Altitude
984.065 km
Speed
7.341 km/s
True Right ascension
05h 39m 28s
True Declination
0° 00' 00"
Sunlit
Object was in daylight at epoch
Visualization orbit readout
Latitude
Unknown
Longitude
Unknown
Altitude
Unknown
Speed
Unknown
Apparent Right ascension
Unknown
Apparent Declination
Unknown
Sunlit
N/A
Visualization observer readout
Local Sidereal Time
15:54:01
Azimuth
Unknown
Elevation
Unknown
Doppler factor
Unknown
Orbital elements
Apogee altitude
1,414.203 km
Perigee altitude
483.298 km
Semi-major axis
7,326.888 km
Eccentricity
0.06353
Inclination
30.4268°
RAAN
84.8679°
Arg. of periapsis
261.4436°
True anomaly
98.61597°
Mean anomaly
91.3716°
Eccentric anomaly
94.99757°
Mean motion
3.4607 °/min
Orbital period
104.03 mins
BSTAR
0.000028047
Loading maneuver chart data...
Computing Atmospheric mass density...

Documentation

Showing up to 5 results
|